Regional Weather Roundup
Issued by NWS Green Bay, WI

Home | Current Version | Previous Version | Text Only | Print | Product List | Glossary On
Versions: 1 2 3 4 5 6 7 8 9 10 11 12 13 14 15 16 17 18 19 20 21 22 23 24 25 26 27 28 29 30 31 32 33 34 35 36 37 38 39 40 41 42 43 44 45 46 47 48 49 50
000
ASUS43 KGRB 010811
RWRGRB

NORTH-CENTRAL AND NORTHEAST WISCONSIN REGIONAL WEATHER ROUNDUP
NATIONAL WEATHER SERVICE GREEN BAY WI
300 AM CDT WED JUN 01 2016

WIZ005-009-010>012-018-019-010900-
NORTH CENTRAL WISCONSIN

CITY           SKY/WX    TMP DP  RH WIND       PRES   REMARKS
IRONWOOD       CLOUDY    61  59  94 S9G16     29.82F
MANITOWISH WTR DRIZZLE   59  59 100 SW7       29.87F
ARBOR VITAE    RAIN      60  58  94 S8        29.88F
EAGLE RIVER    CLOUDY    57  57  99 S6        29.90F
LAND O LAKES   CLOUDY    58  57  97 S7        29.91S
RHINELANDER    CLOUDY    59  57  93 S6        29.91S
PHILLIPS       CLOUDY    60  60 100 S8        29.87F
ANTIGO         CLOUDY    57  57 100 S10       29.91F FOG
TOMAHAWK       CLOUDY    59  58  95 CALM      29.90F
MERRILL        HVY RAIN  60  60 100 S5        29.90F
$$

WIZ013-073-010900-
NORTHEAST WISCONSIN

CITY           SKY/WX    TMP DP  RH WIND       PRES   REMARKS
IRON MOUNTAIN  CLOUDY    58  51  78 SE3       29.92F
MARINETTE      CLOUDY    57  55  94 CALM      29.96R
OCONTO         CLOUDY    58  58 100 CALM      29.94F
$$

WIZ017-030-035>037-045-010900-
CENTRAL WISCONSIN

CITY           SKY/WX    TMP DP  RH WIND       PRES   REMARKS
MEDFORD        CLOUDY    60  60 100 S8        29.88F
WAUSAU         CLOUDY    63  60  90 S7        29.89F
MOSINEE        CLOUDY    61  61 100 S9        29.91F
MARSHFIELD     CLOUDY    62  59  90 S8        29.89F
WISC RAPIDS    CLOUDY    63  59  87 S7        29.91F
STEVENS POINT  CLOUDY    60  60  99 S6        29.91F
WAUPACA        LGT RAIN  64  64  99 S8G17     29.93S
SHAWANO        LGT RAIN  60  57  91 S3        29.93F
CLINTONVILLE   RAIN      59  55  88 SE7       29.93S
WAUTOMA        LGT RAIN N/A N/A N/A S6        29.91F
$$

WIZ038-039-048-051-010900-
FOX VALLEY

CITY           SKY/WX    TMP DP  RH WIND       PRES   REMARKS
NWS GREEN BAY  CLOUDY    60  56  86 S6        29.94F
APPLETON       LGT RAIN  61  59  94 CALM      29.92F
OSHKOSH        LGT RAIN  61  58  90 S3        29.94S
FOND DU LAC    HVY RAIN  61  58  90 SE6       29.95S FOG
$$

WIZ022-050-052-010900-
EAST CENTRAL WISCONSIN

CITY           SKY/WX    TMP DP  RH WIND       PRES   REMARKS
EPHRAIM        CLOUDY    60  51  72 S9        29.95R
STURGEON BAY   CLOUDY    60  52  74 S8        29.96S
MANITOWOC      CLOUDY    60  51  72 CALM      29.95S
SHEBOYGAN      CLOUDY    59  52  77 W3        29.93F
$$

LMZ563-521-522-541>543-010900-
LAKESHORE

STATION/POSITION TIME  TEMP    WIND        PRES    VSBY  WAVE
                       AIR SEA DIR/SP/G                  HT/PER
                 (UTC) (F)     (DEG/KT/KT) (MB)    (MI)  (FT/S)
SHEBOYGAN LKSHOR 0800   59     180/  6/  7 1013.7F
KEWAUNEE LKSHORE 0700   58     120/  3/  4 1013.4F
ALGOMA MARINA    0702             CALM       N/A
NORTHPORT PIER   0700   62     160/ 12/ 21 1013.5S
N MID LAKE BUOY  0750   54 48  140/ 14/ 16 1013.5F         2/ 4
SISTER BAY LKSHO 0705   61     180/  9/ 12   N/A
CHAMBERS ISLAND  0700   61     160/  2/  5 1014.2R
MENOMINEE LKSHOR 0700   59     230/  1/  3 1012.9F
$$




USA.gov is the U.S. government's official web portal to all federal, state and local government web resources and services.